Tracking 17782 objects as of 25-July-2016
HD Live streaming from Space Station
objects crossing your sky now

COSMOS 2430

Track COSMOS 2430 now!
COSMOS 2430 is classified as:


NORAD ID: 32268
Int'l Code: 2007-049A
Perigee: 419.3 km
Apogee: 39,910.0 km
Inclination: 64.4 °
Period: 717.0 minutes
Semi major axis: 26535 km
RCS: 3.1623 m2 (large)
Launch date: October 23, 2007
Source: Commonwealth of Independent States (former USSR) (CIS)
Launch site: PLESETSK MISSILE AND SPACE COMPLEX (PKMTR)
Your satellite tracking list
Your tracking list is empty





NASA's NSSDC Master Catalog

Two Line Element Set (TLE):
1 32268U 07049A   16205.03697248  .00001072  00000-0  12157-2 0  9992
2 32268  64.3766   7.1518 7441053 242.7419  26.0659  2.00843633 64108
Source of the keplerian elements: AFSPC

N2YO: 686